Time,TemperatureF,DewpointF,PressureIn,WindDirection,WindDirectionDegrees,WindSpeedMPH,WindSpeedGustMPH,Humidity,HourlyPrecipIn,Conditions,Clouds,dailyrainin,SoftwareType,DateUTC
2013-05-16 00:01:00,54.0,38.0,29.92,North,360,1.0,2.0,55,0.00,,,0.00,,2013-05-16 06:01:00,
2013-05-16 00:12:00,54.0,38.0,29.92,North,360,1.0,2.0,55,0.00,,,0.00,,2013-05-16 06:12:00,
2013-05-16 00:22:00,54.0,38.0,29.92,South,180,3.0,3.0,55,0.00,,,0.00,,2013-05-16 06:22:00,
2013-05-16 00:33:00,50.0,36.0,29.91,South,180,4.0,5.0,59,0.00,,,0.00,,2013-05-16 06:33:00,
2013-05-16 00:42:00,50.0,36.0,29.91,South,180,4.0,5.0,59,0.00,,,0.00,,2013-05-16 06:42:00,
2013-05-16 00:52:00,50.0,37.0,29.91,South,180,3.0,4.0,61,0.00,,,0.00,,2013-05-16 06:52:00,
2013-05-16 01:02:00,51.0,39.0,29.91,South,180,2.0,3.0,63,0.00,,,0.00,,2013-05-16 07:02:00,
2013-05-16 01:23:00,51.0,39.0,29.91,South,180,2.0,4.0,64,0.00,,,0.00,,2013-05-16 07:23:00,
2013-05-16 01:34:00,51.0,39.0,29.92,ESE,112,3.0,4.0,63,0.00,,,0.00,,2013-05-16 07:34:00,
2013-05-16 01:44:00,51.0,39.0,29.92,ESE,112,3.0,4.0,63,0.00,,,0.00,,2013-05-16 07:44:00,
2013-05-16 01:54:00,51.0,38.0,29.91,ESE,112,3.0,4.0,60,0.00,,,0.00,,2013-05-16 07:54:00,
2013-05-16 02:03:00,52.0,34.0,29.91,South,180,3.0,3.0,51,0.00,,,0.00,,2013-05-16 08:03:00,
2013-05-16 02:13:00,49.0,35.0,29.90,South,180,4.0,5.0,59,0.00,,,0.00,,2013-05-16 08:13:00,
2013-05-16 02:23:00,49.0,35.0,29.90,South,180,4.0,5.0,59,0.00,,,0.00,,2013-05-16 08:23:00,
2013-05-16 02:34:00,51.0,33.0,29.90,South,180,4.0,5.0,49,0.00,,,0.00,,2013-05-16 08:34:00,
2013-05-16 02:44:00,49.0,33.0,29.90,South,180,4.0,5.0,53,0.00,,,0.00,,2013-05-16 08:44:00,
2013-05-16 02:54:00,49.0,33.0,29.90,South,180,4.0,5.0,53,0.00,,,0.00,,2013-05-16 08:54:00,
2013-05-16 03:03:00,49.0,31.0,29.90,South,180,4.0,6.0,50,0.00,,,0.00,,2013-05-16 09:03:00,
2013-05-16 03:14:00,49.0,29.0,29.90,South,180,2.0,4.0,45,0.00,,,0.00,,2013-05-16 09:14:00,
2013-05-16 03:23:00,49.0,29.0,29.90,South,180,2.0,4.0,45,0.00,,,0.00,,2013-05-16 09:23:00,
2013-05-16 03:35:00,51.0,26.0,29.89,SSE,157,4.0,4.0,38,0.00,,,0.00,,2013-05-16 09:35:00,
2013-05-16 03:45:00,51.0,28.0,29.90,SSE,157,2.0,2.0,40,0.00,,,0.00,,2013-05-16 09:45:00,
2013-05-16 03:55:00,51.0,28.0,29.90,SSE,157,2.0,2.0,40,0.00,,,0.00,,2013-05-16 09:55:00,
2013-05-16 04:04:00,48.0,30.0,29.88,East,90,3.0,4.0,49,0.00,,,0.00,,2013-05-16 10:04:00,
2013-05-16 04:14:00,46.0,30.0,29.88,SSE,157,1.0,3.0,53,0.00,,,0.00,,2013-05-16 10:14:00,
2013-05-16 04:24:00,46.0,30.0,29.88,SSE,157,1.0,3.0,53,0.00,,,0.00,,2013-05-16 10:24:00,
2013-05-16 04:35:00,45.0,31.0,29.88,South,180,3.0,3.0,57,0.00,,,0.00,,2013-05-16 10:35:00,
2013-05-16 04:45:00,45.0,31.0,29.88,South,180,3.0,3.0,57,0.00,,,0.00,,2013-05-16 10:45:00,
2013-05-16 04:56:00,45.0,31.0,29.88,SSE,157,2.0,3.0,57,0.00,,,0.00,,2013-05-16 10:56:00,
2013-05-16 05:05:00,47.0,30.0,29.88,South,180,1.0,2.0,51,0.00,,,0.00,,2013-05-16 11:05:00,
2013-05-16 05:14:00,47.0,30.0,29.88,South,180,1.0,2.0,51,0.00,,,0.00,,2013-05-16 11:14:00,
2013-05-16 05:25:00,47.0,29.0,29.88,SSW,202,2.0,3.0,50,0.00,,,0.00,,2013-05-16 11:25:00,
2013-05-16 05:35:00,44.0,29.0,29.88,South,180,2.0,2.0,56,0.00,,,0.00,,2013-05-16 11:35:00,
2013-05-16 05:45:00,44.0,29.0,29.88,South,180,2.0,2.0,56,0.00,,,0.00,,2013-05-16 11:45:00,
2013-05-16 05:56:00,43.0,30.0,29.88,South,180,2.0,2.0,59,0.00,,,0.00,,2013-05-16 11:56:00,
2013-05-16 06:05:00,44.0,31.0,29.88,SE,135,1.0,2.0,59,0.00,,,0.00,,2013-05-16 12:05:00,
2013-05-16 06:13:00,44.0,31.0,29.88,SE,135,1.0,2.0,59,0.00,,,0.00,,2013-05-16 12:13:00,
2013-05-16 06:23:00,43.0,31.0,29.88,SSE,157,2.0,3.0,63,0.00,,,0.00,,2013-05-16 12:23:00,
2013-05-16 06:34:00,44.0,33.0,29.90,SSE,157,2.0,3.0,65,0.00,,,0.00,,2013-05-16 12:34:00,
2013-05-16 06:44:00,44.0,33.0,29.90,SSE,157,2.0,3.0,65,0.00,,,0.00,,2013-05-16 12:44:00,
2013-05-16 06:53:00,45.0,35.0,29.91,SSE,157,3.0,4.0,67,0.00,,,0.00,,2013-05-16 12:53:00,
2013-05-16 07:04:00,48.0,37.0,29.92,SE,135,2.0,2.0,65,0.00,,,0.00,,2013-05-16 13:04:00,
2013-05-16 07:11:00,51.0,38.0,29.94,SE,135,1.0,2.0,60,0.00,,,0.00,,2013-05-16 13:11:00,
2013-05-16 07:26:00,51.0,38.0,29.94,SE,135,1.0,2.0,60,0.00,,,0.00,,2013-05-16 13:26:00,
2013-05-16 07:35:00,53.0,40.0,29.96,ESE,112,4.0,5.0,61,0.00,,,0.00,,2013-05-16 13:35:00,
2013-05-16 07:43:00,53.0,40.0,29.96,ESE,112,4.0,5.0,61,0.00,,,0.00,,2013-05-16 13:43:00,
2013-05-16 07:54:00,55.0,39.0,29.97,ESE,112,3.0,4.0,55,0.00,,,0.00,,2013-05-16 13:54:00,
2013-05-16 08:04:00,57.0,36.0,29.98,ESE,112,2.0,4.0,46,0.00,,,0.00,,2013-05-16 14:04:00,
2013-05-16 08:15:00,57.0,36.0,29.98,ESE,112,2.0,4.0,46,0.00,,,0.00,,2013-05-16 14:15:00,
2013-05-16 08:23:00,59.0,38.0,30.00,ESE,112,2.0,2.0,45,0.00,,,0.00,,2013-05-16 14:23:00,
2013-05-16 08:36:00,61.0,38.0,30.02,East,90,2.0,2.0,43,0.00,,,0.00,,2013-05-16 14:36:00,
2013-05-16 08:47:00,61.0,38.0,30.02,East,90,2.0,2.0,43,0.00,,,0.00,,2013-05-16 14:47:00,
2013-05-16 08:55:00,63.0,38.0,30.03,ESE,112,0.0,0.0,39,0.00,,,0.00,,2013-05-16 14:55:00,
2013-05-16 09:08:00,64.0,37.0,30.03,SSE,157,0.0,2.0,37,0.00,,,0.00,,2013-05-16 15:08:00,
2013-05-16 09:17:00,65.0,38.0,30.03,NE,45,2.0,3.0,37,0.00,,,0.00,,2013-05-16 15:17:00,
2013-05-16 09:28:00,65.0,38.0,30.03,NE,45,2.0,3.0,37,0.00,,,0.00,,2013-05-16 15:28:00,
2013-05-16 09:40:00,66.0,38.0,30.06,North,360,1.0,2.0,36,0.00,,,0.00,,2013-05-16 15:40:00,
2013-05-16 09:50:00,67.0,38.0,30.06,NE,45,2.0,2.0,35,0.00,,,0.00,,2013-05-16 15:50:00,
2013-05-16 10:00:00,67.0,38.0,30.06,NE,45,2.0,2.0,35,0.00,,,0.00,,2013-05-16 16:00:00,
2013-05-16 10:09:00,68.0,39.0,30.06,NNE,22,3.0,6.0,34,0.00,,,0.00,,2013-05-16 16:09:00,
2013-05-16 10:19:00,68.0,39.0,30.06,NNE,22,3.0,6.0,34,0.00,,,0.00,,2013-05-16 16:19:00,
2013-05-16 10:30:00,69.0,42.0,30.06,NNE,22,5.0,6.0,37,0.00,,,0.00,,2013-05-16 16:30:00,
2013-05-16 10:40:00,69.0,-99.9,30.05,North,360,3.0,4.0,38,0.00,,,0.00,,2013-05-16 16:40:00,
2013-05-16 10:50:00,69.0,42.0,30.05,North,360,3.0,4.0,38,0.00,,,0.00,,2013-05-16 16:50:00,
2013-05-16 11:00:00,70.0,42.0,30.06,North,360,4.0,6.0,36,0.00,,,0.00,,2013-05-16 17:00:00,
2013-05-16 11:10:00,70.0,40.0,30.06,North,360,4.0,7.0,33,0.00,,,0.00,,2013-05-16 17:10:00,
2013-05-16 11:20:00,70.0,40.0,30.06,North,360,4.0,7.0,33,0.00,,,0.00,,2013-05-16 17:20:00,
2013-05-16 11:30:00,72.0,40.0,30.06,NE,45,1.0,3.0,31,0.00,,,0.00,,2013-05-16 17:30:00,
2013-05-16 11:40:00,73.0,36.0,30.06,NNW,337,3.0,4.0,26,0.00,,,0.00,,2013-05-16 17:40:00,
2013-05-16 11:50:00,74.0,-99.9,30.06,NNE,22,2.0,4.0,29,0.00,,,0.00,,2013-05-16 17:50:00,
2013-05-16 12:00:00,74.0,-99.9,30.06,NNE,22,2.0,4.0,29,0.00,,,0.00,,2013-05-16 18:00:00,
2013-05-16 12:10:00,75.0,34.0,30.06,NE,45,1.0,2.0,22,0.00,,,0.00,,2013-05-16 18:10:00,
2013-05-16 12:20:00,75.0,34.0,30.06,NE,45,1.0,2.0,22,0.00,,,0.00,,2013-05-16 18:20:00,
2013-05-16 12:30:00,-999.0,-99.9,30.05,WNW,292,1.0,2.0,21,0.00,,,0.00,,2013-05-16 18:30:00,
2013-05-16 12:40:00,-999.0,-99.9,30.05,SE,135,0.0,1.0,20,0.00,,,0.00,,2013-05-16 18:40:00,
2013-05-16 12:50:00,-999.0,-99.9,30.05,SE,135,0.0,1.0,20,0.00,,,0.00,,2013-05-16 18:50:00,
2013-05-16 13:00:00,-999.0,-99.9,30.03,East,90,2.0,4.0,22,0.00,,,0.00,,2013-05-16 19:00:00,
2013-05-16 13:10:00,75.0,30.0,30.03,WNW,292,3.0,6.0,19,0.00,,,0.00,,2013-05-16 19:10:00,
2013-05-16 13:20:00,75.0,30.0,30.03,WNW,292,3.0,6.0,19,0.00,,,0.00,,2013-05-16 19:20:00,
2013-05-16 13:30:00,77.0,32.0,30.03,NNE,22,1.0,2.0,19,0.00,,,0.00,,2013-05-16 19:30:00,
2013-05-16 13:40:00,76.0,-99.9,30.03,NNE,22,5.0,7.0,20,0.00,,,0.00,,2013-05-16 19:40:00,
2013-05-16 13:50:00,76.0,-99.9,30.03,NNE,22,5.0,7.0,20,0.00,,,0.00,,2013-05-16 19:50:00,
2013-05-16 14:00:00,78.0,-99.9,30.03,SW,225,3.0,6.0,16,0.00,,,0.00,,2013-05-16 20:00:00,
2013-05-16 14:10:00,-999.0,-99.9,30.03,WNW,292,5.0,10.0,16,0.00,,,0.00,,2013-05-16 20:10:00,
2013-05-16 14:20:00,79.0,29.0,30.02,SW,225,4.0,6.0,16,0.00,,,0.00,,2013-05-16 20:20:00,
2013-05-16 14:30:00,79.0,29.0,30.02,SW,225,4.0,6.0,16,0.00,,,0.00,,2013-05-16 20:30:00,
2013-05-16 14:40:00,-999.0,-99.9,30.02,SSW,202,6.0,8.0,15,0.00,,,0.00,,2013-05-16 20:40:00,
2013-05-16 14:50:00,81.0,29.0,30.02,WNW,292,7.0,14.0,15,0.00,,,0.00,,2013-05-16 20:50:00,
2013-05-16 15:00:00,81.0,29.0,30.02,WNW,292,7.0,14.0,15,0.00,,,0.00,,2013-05-16 21:00:00,
2013-05-16 15:10:00,80.0,-99.9,30.02,SW,225,5.0,9.0,15,0.00,,,0.00,,2013-05-16 21:10:00,
2013-05-16 15:20:00,80.0,28.0,30.02,SW,225,5.0,9.0,15,0.00,,,0.00,,2013-05-16 21:20:00,
2013-05-16 15:29:00,82.0,30.0,30.02,SW,225,11.0,18.0,15,0.00,,,0.00,,2013-05-16 21:29:00,
2013-05-16 15:38:00,82.0,28.0,30.01,SW,225,10.0,17.0,14,0.00,,,0.00,,2013-05-16 21:38:00,
2013-05-16 15:50:00,82.0,28.0,30.01,SW,225,10.0,17.0,14,0.00,,,0.00,,2013-05-16 21:50:00,
2013-05-16 16:00:00,-999.0,-99.9,30.01,South,180,10.0,15.0,14,0.00,,,0.00,,2013-05-16 22:00:00,
2013-05-16 16:07:00,82.0,28.0,30.01,WSW,247,10.0,17.0,14,0.00,,,0.00,,2013-05-16 22:07:00,
2013-05-16 16:20:00,82.0,28.0,30.01,WSW,247,10.0,17.0,14,0.00,,,0.00,,2013-05-16 22:20:00,
2013-05-16 16:30:00,82.0,28.0,30.00,SW,225,10.0,13.0,14,0.00,,,0.00,,2013-05-16 22:30:00,
2013-05-16 16:40:00,82.0,28.0,30.00,WSW,247,12.0,20.0,14,0.00,,,0.00,,2013-05-16 22:40:00,
2013-05-16 16:50:00,82.0,28.0,30.00,WSW,247,12.0,20.0,14,0.00,,,0.00,,2013-05-16 22:50:00,
2013-05-16 17:00:00,80.0,28.0,29.98,SW,225,13.0,19.0,15,0.00,,,0.00,,2013-05-16 23:00:00,
2013-05-16 17:06:00,81.0,29.0,30.00,SW,225,9.0,14.0,15,0.00,,,0.00,,2013-05-16 23:06:00,
2013-05-16 17:16:00,81.0,27.0,29.98,WSW,247,11.0,17.0,14,0.00,,,0.00,,2013-05-16 23:16:00,
2013-05-16 17:24:00,81.0,27.0,29.98,WSW,247,11.0,17.0,14,0.00,,,0.00,,2013-05-16 23:24:00,
2013-05-16 17:34:00,79.0,27.0,29.98,SW,225,15.0,24.0,15,0.00,,,0.00,,2013-05-16 23:34:00,
2013-05-16 17:45:00,79.0,27.0,29.98,SW,225,15.0,24.0,15,0.00,,,0.00,,2013-05-16 23:45:00,
2013-05-16 17:53:00,79.0,27.0,29.98,SW,225,16.0,21.0,15,0.00,,,0.00,,2013-05-16 23:53:00,
2013-05-16 18:02:00,77.0,27.0,29.98,SW,225,10.0,14.0,16,0.00,,,0.00,,2013-05-17 00:02:00,
2013-05-16 18:13:00,77.0,27.0,29.98,SW,225,10.0,14.0,16,0.00,,,0.00,,2013-05-17 00:13:00,
2013-05-16 18:22:00,76.0,27.0,29.96,SW,225,10.0,14.0,16,0.00,,,0.00,,2013-05-17 00:22:00,
2013-05-16 18:33:00,77.0,29.0,29.96,SW,225,9.0,13.0,17,0.00,,,0.00,,2013-05-17 00:33:00,
2013-05-16 18:43:00,77.0,29.0,29.96,SW,225,9.0,13.0,17,0.00,,,0.00,,2013-05-17 00:43:00,
2013-05-16 18:52:00,76.0,27.0,29.96,SW,225,14.0,20.0,16,0.00,,,0.00,,2013-05-17 00:52:00,
2013-05-16 19:03:00,76.0,27.0,29.96,SW,225,11.0,17.0,16,0.00,,,0.00,,2013-05-17 01:03:00,
2013-05-16 19:11:00,76.0,27.0,29.96,SW,225,11.0,17.0,16,0.00,,,0.00,,2013-05-17 01:11:00,
2013-05-16 19:23:00,76.0,25.0,29.95,WSW,247,11.0,19.0,15,0.00,,,0.00,,2013-05-17 01:23:00,
2013-05-16 19:31:00,76.0,25.0,29.96,WSW,247,14.0,23.0,15,0.00,,,0.00,,2013-05-17 01:31:00,
2013-05-16 19:43:00,76.0,25.0,29.96,WSW,247,14.0,23.0,15,0.00,,,0.00,,2013-05-17 01:43:00,
2013-05-16 19:52:00,75.0,24.0,29.96,SW,225,10.0,14.0,15,0.00,,,0.00,,2013-05-17 01:52:00,
2013-05-16 20:01:00,74.0,25.0,29.96,SW,225,8.0,12.0,16,0.00,,,0.00,,2013-05-17 02:01:00,
2013-05-16 20:11:00,74.0,25.0,29.96,SW,225,8.0,12.0,16,0.00,,,0.00,,2013-05-17 02:11:00,
2013-05-16 20:21:00,72.0,26.0,29.96,SW,225,4.0,6.0,18,0.00,,,0.00,,2013-05-17 02:21:00,
2013-05-16 20:32:00,71.0,27.0,29.95,SW,225,3.0,4.0,19,0.00,,,0.00,,2013-05-17 02:32:00,
2013-05-16 20:41:00,71.0,27.0,29.95,SW,225,3.0,4.0,19,0.00,,,0.00,,2013-05-17 02:41:00,
2013-05-16 20:52:00,70.0,27.0,29.94,SSW,202,3.0,4.0,20,0.00,,,0.00,,2013-05-17 02:52:00,
2013-05-16 21:01:00,69.0,27.0,29.94,South,180,2.0,4.0,21,0.00,,,0.00,,2013-05-17 03:01:00,
2013-05-16 21:11:00,69.0,27.0,29.94,South,180,2.0,4.0,21,0.00,,,0.00,,2013-05-17 03:11:00,
2013-05-16 21:22:00,68.0,28.0,29.94,South,180,2.0,2.0,22,0.00,,,0.00,,2013-05-17 03:22:00,
2013-05-16 21:33:00,67.0,30.0,29.94,South,180,2.0,4.0,25,0.00,,,0.00,,2013-05-17 03:33:00,
2013-05-16 21:43:00,67.0,30.0,29.94,South,180,2.0,4.0,25,0.00,,,0.00,,2013-05-17 03:43:00,
2013-05-16 21:52:00,65.0,30.0,29.93,South,180,2.0,3.0,27,0.00,,,0.00,,2013-05-17 03:52:00,
2013-05-16 22:02:00,64.0,30.0,29.93,South,180,2.0,4.0,28,0.00,,,0.00,,2013-05-17 04:02:00,
2013-05-16 22:12:00,64.0,30.0,29.93,South,180,2.0,4.0,28,0.00,,,0.00,,2013-05-17 04:12:00,
2013-05-16 22:23:00,64.0,30.0,29.93,South,180,4.0,5.0,28,0.00,,,0.00,,2013-05-17 04:23:00,
2013-05-16 22:33:00,63.0,30.0,29.92,South,180,3.0,4.0,29,0.00,,,0.00,,2013-05-17 04:33:00,
2013-05-16 22:43:00,63.0,30.0,29.92,South,180,3.0,4.0,29,0.00,,,0.00,,2013-05-17 04:43:00,
2013-05-16 22:53:00,62.0,29.0,29.92,South,180,3.0,4.0,29,0.00,,,0.00,,2013-05-17 04:53:00,
2013-05-16 23:02:00,62.0,29.0,29.92,South,180,1.0,2.0,29,0.00,,,0.00,,2013-05-17 05:02:00,
2013-05-16 23:13:00,62.0,29.0,29.92,South,180,1.0,2.0,29,0.00,,,0.00,,2013-05-17 05:13:00,
2013-05-16 23:21:00,62.0,29.0,29.92,SE,135,2.0,3.0,28,0.00,,,0.00,,2013-05-17 05:21:00,
2013-05-16 23:32:00,61.0,27.0,29.91,South,180,3.0,6.0,27,0.00,,,0.00,,2013-05-17 05:32:00,
2013-05-16 23:42:00,61.0,27.0,29.91,South,180,3.0,6.0,27,0.00,,,0.00,,2013-05-17 05:42:00,
2013-05-16 23:51:00,61.0,28.0,29.91,SSE,157,5.0,6.0,28,0.00,,,0.00,,2013-05-17 05:51:00,